International Falls, MN

4:58 AM CDT on September 22, 2017 (GMT -0500)
Falls International

Weather History for KINL - September, 2013

Change the Weather History Date:

Thursday, September 19, 2013

  Actual Average Record
Temperature  
Mean Temperature 65 °F 52 °F  
Max Temperature 73 °F 64 °F 86 °F (1970)
Min Temperature 57 °F 40 °F 27 °F (1992)
Degree Days  
Heating Degree Days 0 13  
Month to date heating degree days 136 182  
Since 1 July heating degree days 356 363  
Cooling Degree Days 0 0  
Month to date cooling degree days 7 9  
Year to date cooling degree days 220 190  
Growing Degree Days 15 (Base 50)    
Moisture  
Dew Point 64 °F    
Average Humidity 90    
Maximum Humidity 100    
Minimum Humidity 79    
Precipitation  
Precipitation 0.24 in 0.10 in 1.25 in (1988)
Month to date precipitation 1.52 1.94  
Year to date precipitation 26.63 18.90  
Snow  
Snow 0.00 in 0.00 in T in (1991)
Month to date snowfall 0.0 0.0  
Since 1 July snowfall 0.0 0.0  
Since 1 September snowfall 0.0 0.0  
Snow Depth 0.00 in    
Sea Level Pressure  
Sea Level Pressure 29.68 in    
Wind  
Wind Speed 6 mph (WSW)    
Max Wind Speed 17 mph    
Max Gust Speed 25 mph    
Visibility 7 miles    
Events Fog , Rain , Thunderstorm    
T = Trace of Precipitation, MM = Missing Value Source: NWS Daily Summary

Daily Weather History Graph

Daily Weather History Graph

Search for Another Location

Airport or City:

Trip Planner

Search our weather history database for the weather conditions in past years. The results will help you decide how hot, cold, wet, or windy it might be!

Date:

Astronomy

Sep. 19, 2013 Rise Set
Actual Time 6:56 AM CDT 7:17 PM CDT
Civil Twilight 6:24 AM CDT 7:48 PM CDT
Nautical Twilight 5:47 AM CDT 8:25 PM CDT
Astronomical Twilight 5:09 AM CDT 9:04 PM CDT
Moon 7:08 PM CDT (9/19) 7:10 AM CDT (9/19)
Length of Visible Light 13h 23m
Length of Day
12h 20m
Full, 100% of the Moon is Illuminated
Sep 19
Full
Sep 26
Last Quarter
Oct 4
New
Oct 11
First Quarter
Oct 18
Full

Hourly Weather History & Observations

Time (CDT) Temp. Dew Point Humidity Pressure Visibility Wind Dir Wind Speed Gust Speed Precip Events Conditions
12:55 AM 64.9 °F 63.0 °F 93% 29.70 in 10.0 mi SE 6.9 mph - 0.00 in Thunderstorm Overcast
1:11 AM 64.4 °F 62.6 °F 94% 29.69 in 6.0 mi ESE 10.4 mph - 0.00 in Rain Light Rain
1:55 AM 64.0 °F 63.0 °F 96% 29.69 in 6.0 mi ESE 8.1 mph - 0.03 in Rain Light Rain
2:26 AM 64.4 °F 64.4 °F 100% 29.69 in 5.0 mi Variable 6.9 mph - 0.00 in Rain , Thunderstorm Light Thunderstorms and Rain
2:38 AM 64.4 °F 64.4 °F 100% 29.72 in 2.5 mi South 9.2 mph - 0.08 in Rain , Thunderstorm Heavy Thunderstorms and Rain
2:48 AM 64.4 °F 64.4 °F 100% 29.70 in 3.0 mi SW 10.4 mph 25.3 mph 0.15 in Rain , Thunderstorm Thunderstorms and Rain
2:55 AM 64.9 °F 64.0 °F 97% 29.71 in 5.0 mi Variable 6.9 mph 19.6 mph 0.16 in Rain , Thunderstorm Thunderstorms and Rain
3:23 AM 64.4 °F 62.6 °F 94% 29.68 in 10.0 mi SE 6.9 mph - 0.04 in Rain Light Rain
3:55 AM 63.0 °F 61.0 °F 93% 29.67 in 10.0 mi ESE 5.8 mph - 0.05 in Rain Light Rain
4:55 AM 62.1 °F 60.1 °F 93% 29.65 in 10.0 mi ESE 6.9 mph - 0.00 in   Clear
5:55 AM 62.1 °F 60.1 °F 93% 29.65 in 10.0 mi NNW 4.6 mph - N/A   Mostly Cloudy
6:08 AM 62.6 °F 60.8 °F 94% 29.65 in 10.0 mi Calm Calm - N/A   Scattered Clouds
6:30 AM 62.6 °F 60.8 °F 94% 29.68 in 10.0 mi SE 5.8 mph - N/A   Mostly Cloudy
6:55 AM 63.0 °F 61.0 °F 93% 29.68 in 10.0 mi East 6.9 mph - N/A   Overcast
7:07 AM 62.6 °F 60.8 °F 94% 29.68 in 10.0 mi ESE 5.8 mph - N/A   Overcast
7:42 AM 62.6 °F 62.6 °F 100% 29.67 in 1.8 mi East 3.5 mph - N/A   Overcast
7:55 AM 63.0 °F 62.1 °F 97% 29.68 in 0.5 mi ESE 3.5 mph - N/A Fog Fog
8:06 AM 62.6 °F 62.6 °F 100% 29.68 in 0.2 mi SE 4.6 mph - N/A Fog Fog
8:55 AM 64.0 °F 63.0 °F 96% 29.68 in 0.2 mi ESE 4.6 mph - N/A Fog Fog
9:55 AM 66.0 °F 66.0 °F 100% 29.68 in 0.2 mi Calm Calm - N/A Fog Fog
10:16 AM 66.2 °F 66.2 °F 100% 29.68 in 0.5 mi Calm Calm - N/A Fog Fog
10:39 AM 66.2 °F 66.2 °F 100% 29.68 in 1.5 mi Variable 4.6 mph - N/A   Overcast
10:50 AM 68.0 °F 66.2 °F 94% 29.69 in 2.5 mi SSW 3.5 mph - N/A   Overcast
10:55 AM 68.0 °F 66.9 °F 96% 29.69 in 2.5 mi SW 3.5 mph - N/A   Overcast
10:59 AM 68.0 °F 66.2 °F 94% 29.69 in 3.0 mi SSW 4.6 mph - N/A   Overcast
11:09 AM 68.0 °F 66.2 °F 94% 29.68 in 4.0 mi SE 5.8 mph - N/A   Overcast
11:45 AM 69.8 °F 66.2 °F 88% 29.68 in 7.0 mi Calm Calm - N/A   Overcast
11:55 AM 70.0 °F 68.0 °F 93% 29.68 in 8.0 mi Calm Calm - N/A   Overcast
12:02 PM 69.8 °F 66.2 °F 88% 29.68 in 8.0 mi Calm Calm - N/A   Overcast
12:20 PM 71.6 °F 66.2 °F 83% 29.67 in 9.0 mi Calm Calm - N/A   Mostly Cloudy
12:55 PM 71.1 °F 66.9 °F 87% 29.69 in 8.0 mi Calm Calm - N/A   Overcast
1:55 PM 71.1 °F 66.9 °F 87% 29.66 in 9.0 mi Calm Calm - N/A   Mostly Cloudy
2:09 PM 71.6 °F 66.2 °F 83% 29.66 in 9.0 mi Calm Calm - N/A   Scattered Clouds
2:46 PM 71.6 °F 68.0 °F 88% 29.65 in 10.0 mi WSW 3.5 mph - N/A   Mostly Cloudy
2:55 PM 72.0 °F 66.9 °F 84% 29.65 in 9.0 mi West 3.5 mph - N/A   Mostly Cloudy
3:18 PM 73.4 °F 68.0 °F 83% 29.66 in 10.0 mi Calm Calm - N/A   Scattered Clouds
3:55 PM 73.0 °F 66.9 °F 81% 29.65 in 10.0 mi WNW 8.1 mph - N/A   Scattered Clouds
4:41 PM 73.4 °F 66.2 °F 78% 29.65 in 10.0 mi WNW 5.8 mph - N/A   Mostly Cloudy
4:55 PM 73.0 °F 66.0 °F 79% 29.65 in 10.0 mi WNW 6.9 mph - N/A   Mostly Cloudy
5:55 PM 72.0 °F 64.0 °F 76% 29.66 in 10.0 mi NW 8.1 mph - N/A   Partly Cloudy
6:22 PM 71.6 °F 64.4 °F 78% 29.67 in 8.0 mi WNW 8.1 mph - N/A   Mostly Cloudy
6:39 PM 68.0 °F 64.4 °F 88% 29.68 in 6.0 mi WNW 4.6 mph - 0.00 in Rain Light Rain
6:55 PM 69.1 °F 66.0 °F 90% 29.68 in 10.0 mi NW 5.8 mph - 0.00 in   Mostly Cloudy
7:55 PM 66.0 °F 63.0 °F 90% 29.70 in 10.0 mi West 10.4 mph - N/A   Mostly Cloudy
8:55 PM 64.0 °F 61.0 °F 90% 29.72 in 10.0 mi West 11.5 mph 20.7 mph N/A   Overcast
9:03 PM 62.6 °F 60.8 °F 94% 29.71 in 10.0 mi West 9.2 mph - N/A   Overcast
9:40 PM 62.6 °F 60.8 °F 94% 29.72 in 10.0 mi West 9.2 mph - N/A   Overcast
9:55 PM 62.1 °F 60.1 °F 93% 29.73 in 10.0 mi West 9.2 mph - N/A   Overcast
10:06 PM 62.6 °F 60.8 °F 94% 29.72 in 10.0 mi WNW 8.1 mph - N/A   Overcast
10:51 PM 60.8 °F 57.2 °F 88% 29.72 in 10.0 mi NW 10.4 mph - N/A   Overcast
10:55 PM 61.0 °F 57.0 °F 87% 29.72 in 10.0 mi NW 11.5 mph 19.6 mph N/A   Overcast
11:42 PM 57.2 °F 55.4 °F 94% 29.73 in 10.0 mi WNW 9.2 mph - N/A   Mostly Cloudy
11:55 PM 57.9 °F 54.0 °F 87% 29.74 in 10.0 mi NW 10.4 mph - N/A   Overcast